N553RH KBZN-KJAC

Flight info

Callsign N553RH
Flight time 0h 30m
Altitude 31000
Route UPLOW IPARK PETTZ TOCUD
Aircraft C750/M-SBDE3FGHRWXY/S

Departure

Time 2026-04-23 05:42
Airport Bozeman Yellowstone International Airport (KBZN)

Arrival

Time 2026-04-23 06:13
Airport Jackson Hole Airport (KJAC)
Time Latitude Longitude Altitude Speed Heading
2026-04-23 05:19 45.77498 -111.15335 4455 ft 0 kts 238°
2026-04-23 05:38 45.77496 -111.15340 4455 ft 1 kts 240°
2026-04-23 05:38 45.77497 -111.15352 4455 ft 2 kts 293°
2026-04-23 05:39 45.77538 -111.15368 4455 ft 12 kts 348°
2026-04-23 05:39 45.77610 -111.15395 4454 ft 10 kts 315°
2026-04-23 05:39 45.77656 -111.15460 4453 ft 9 kts 317°
2026-04-23 05:39 45.77727 -111.15556 4453 ft 18 kts 316°
2026-04-23 05:40 45.77826 -111.15648 4452 ft 15 kts
2026-04-23 05:40 45.77921 -111.15540 4450 ft 24 kts 44°
2026-04-23 05:40 45.78054 -111.15347 4465 ft 23 kts 45°
2026-04-23 05:40 45.78122 -111.15249 4475 ft 0 kts 47°
2026-04-23 05:41 45.78126 -111.15243 4470 ft 4 kts 47°
2026-04-23 05:41 45.78115 -111.15160 4475 ft 11 kts 123°
2026-04-23 05:42 45.78057 -111.15082 4473 ft 42 kts 137°
2026-04-23 05:42 45.77590 -111.14433 4459 ft 139 kts 136°
2026-04-23 05:42 45.76823 -111.13365 4913 ft 147 kts 134°
2026-04-23 05:42 45.76107 -111.12413 5727 ft 138 kts 142°
2026-04-23 05:43 45.75177 -111.11958 5889 ft 161 kts 192°
2026-04-23 05:43 45.74149 -111.12876 5959 ft 192 kts 220°
2026-04-23 05:43 45.73062 -111.14198 6323 ft 217 kts 220°
2026-04-23 05:43 45.72057 -111.15954 6712 ft 241 kts 238°
2026-04-23 05:44 45.71145 -111.18061 7232 ft 258 kts 240°
2026-04-23 05:44 45.70172 -111.20225 8153 ft 257 kts 240°
2026-04-23 05:44 45.69170 -111.22347 9158 ft 260 kts 240°
2026-04-23 05:44 45.68115 -111.24520 9755 ft 273 kts 239°
2026-04-23 05:45 45.67004 -111.26785 10291 ft 284 kts 239°
2026-04-23 05:45 45.65840 -111.29217 10334 ft 309 kts 242°
2026-04-23 05:45 45.64840 -111.32052 10339 ft 330 kts 248°
2026-04-23 05:45 45.63665 -111.34933 10791 ft 339 kts 238°
2026-04-23 05:46 45.62102 -111.37495 11341 ft 346 kts 227°
2026-04-23 05:46 45.60273 -111.39777 11855 ft 352 kts 223°
2026-04-23 05:46 45.58375 -111.42021 12393 ft 355 kts 223°
2026-04-23 05:46 45.56559 -111.44428 12914 ft 358 kts 227°
2026-04-23 05:47 45.54815 -111.46934 13423 ft 362 kts 227°
2026-04-23 05:47 45.52982 -111.49447 13889 ft 367 kts 225°
2026-04-23 05:47 45.51091 -111.51922 14356 ft 370 kts 224°
2026-04-23 05:47 45.49086 -111.54269 14687 ft 379 kts 213°
2026-04-23 05:48 45.46579 -111.55460 15169 ft 383 kts 191°
2026-04-23 05:48 45.43913 -111.55432 15624 ft 388 kts 170°
2026-04-23 05:48 45.41376 -111.54107 16150 ft 389 kts 152°
2026-04-23 05:48 45.39029 -111.52144 16413 ft 393 kts 148°
2026-04-23 05:49 45.36735 -111.50117 17010 ft 393 kts 148°
2026-04-23 05:49 45.34383 -111.48109 17568 ft 395 kts 149°
2026-04-23 05:49 45.31997 -111.46134 18072 ft 398 kts 150°
2026-04-23 05:49 45.29597 -111.44120 18535 ft 403 kts 149°
2026-04-23 05:50 45.27177 -111.42055 19000 ft 407 kts 149°
2026-04-23 05:50 45.24735 -111.39986 19546 ft 409 kts 149°
2026-04-23 05:50 45.22279 -111.37929 20110 ft 411 kts 149°
2026-04-23 05:50 45.19828 -111.35873 20575 ft 416 kts 149°
2026-04-23 05:51 45.17326 -111.33765 21073 ft 419 kts 149°
2026-04-23 05:51 45.14803 -111.31642 21552 ft 423 kts 149°
2026-04-23 05:51 45.12264 -111.29515 22110 ft 424 kts 149°
2026-04-23 05:51 45.09709 -111.27376 22570 ft 428 kts 149°
2026-04-23 05:52 45.07123 -111.25211 23069 ft 431 kts 149°
2026-04-23 05:52 45.04564 -111.23070 23549 ft 433 kts 149°
2026-04-23 05:52 45.02021 -111.20947 24392 ft 436 kts 148°
2026-04-23 05:52 44.99377 -111.18739 24501 ft 448 kts 147°
2026-04-23 05:53 44.96678 -111.16488 24869 ft 451 kts 147°
2026-04-23 05:53 44.93979 -111.14246 25376 ft 451 kts 147°
2026-04-23 05:53 44.91269 -111.11996 25747 ft 454 kts 147°
2026-04-23 05:53 44.88536 -111.09725 26122 ft 457 kts 147°
2026-04-23 05:54 44.85783 -111.07436 26505 ft 459 kts 147°
2026-04-23 05:54 44.83022 -111.05147 26881 ft 462 kts 147°
2026-04-23 05:54 44.80244 -111.02849 27272 ft 465 kts 147°
2026-04-23 05:54 44.77444 -111.00534 27646 ft 468 kts 147°
2026-04-23 05:55 44.74626 -110.98206 28014 ft 470 kts 147°
2026-04-23 05:55 44.71788 -110.95863 28409 ft 473 kts 147°
2026-04-23 05:55 44.68941 -110.93518 28778 ft 476 kts 147°
2026-04-23 05:55 44.66114 -110.91190 29134 ft 479 kts 147°
2026-04-23 05:56 44.63230 -110.88820 29454 ft 481 kts 147°
2026-04-23 05:56 44.60336 -110.86443 29142 ft 478 kts 148°
2026-04-23 05:56 44.57488 -110.84109 28678 ft 473 kts 148°
2026-04-23 05:56 44.54638 -110.81771 28036 ft 474 kts 148°
2026-04-23 05:57 44.51805 -110.79452 27469 ft 469 kts 148°
2026-04-23 05:57 44.48993 -110.77155 26926 ft 466 kts 148°
2026-04-23 05:57 44.46203 -110.74877 26383 ft 462 kts 148°
2026-04-23 05:57 44.43434 -110.72618 25842 ft 458 kts 149°
2026-04-23 05:58 44.40686 -110.70379 25295 ft 456 kts 150°
2026-04-23 05:58 44.38871 -110.68902 24928 ft 453 kts 150°
2026-04-23 05:58 44.35271 -110.65973 24202 ft 449 kts 150°
2026-04-23 05:58 44.32582 -110.63790 23739 ft 444 kts 150°
2026-04-23 05:59 44.29913 -110.61625 23261 ft 443 kts 150°
2026-04-23 05:59 44.28150 -110.60190 22859 ft 441 kts 150°
2026-04-23 05:59 44.25689 -110.57696 22481 ft 438 kts 140°
2026-04-23 05:59 44.23591 -110.54606 21788 ft 430 kts 128°
2026-04-23 06:00 44.21961 -110.51129 21632 ft 432 kts 120°
2026-04-23 06:00 44.20439 -110.47470 20792 ft 439 kts 120°
2026-04-23 06:00 44.18946 -110.43825 20298 ft 424 kts 120°
2026-04-23 06:00 44.17504 -110.40329 20276 ft 416 kts 120°
2026-04-23 06:01 44.16020 -110.36780 19517 ft 427 kts 121°
2026-04-23 06:01 44.14227 -110.33551 18886 ft 415 kts 135°
2026-04-23 06:01 44.12062 -110.30991 18362 ft 403 kts 148°
2026-04-23 06:01 44.09652 -110.29140 17803 ft 398 kts 160°
2026-04-23 06:02 44.07039 -110.27981 17273 ft 391 kts 171°
2026-04-23 06:02 44.04364 -110.27552 16762 ft 383 kts 182°
2026-04-23 06:02 44.01735 -110.27828 16251 ft 375 kts 193°
2026-04-23 06:02 43.99241 -110.28755 15762 ft 367 kts 204°
2026-04-23 06:03 43.97031 -110.30195 15251 ft 321 kts 215°
2026-04-23 06:03 43.95224 -110.31939 14870 ft 315 kts 223°
2026-04-23 06:03 43.93677 -110.33979 14470 ft 304 kts 231°
2026-04-23 06:03 43.92320 -110.36129 14077 ft 289 kts 232°
2026-04-23 06:04 43.91016 -110.38156 13715 ft 275 kts 232°
2026-04-23 06:04 43.89769 -110.40095 13328 ft 264 kts 232°
2026-04-23 06:04 43.88578 -110.41966 12998 ft 252 kts 232°
2026-04-23 06:04 43.87461 -110.43715 12983 ft 233 kts 232°
2026-04-23 06:05 43.86425 -110.45332 12984 ft 220 kts 232°
2026-04-23 06:05 43.85448 -110.46859 12986 ft 198 kts 233°
2026-04-23 06:05 43.84571 -110.48225 12551 ft 192 kts 233°
2026-04-23 06:05 43.83681 -110.49628 11533 ft 192 kts 232°
2026-04-23 06:06 43.82835 -110.50944 10951 ft 173 kts 231°
2026-04-23 06:06 43.82090 -110.52102 10912 ft 163 kts 232°
2026-04-23 06:06 43.81346 -110.53371 10896 ft 173 kts 240°
2026-04-23 06:06 43.80841 -110.54862 10756 ft 171 kts 246°
2026-04-23 06:07 43.80335 -110.56357 10560 ft 171 kts 245°
2026-04-23 06:07 43.79823 -110.57842 10358 ft 170 kts 245°
2026-04-23 06:07 43.79319 -110.59307 10167 ft 165 kts 247°
2026-04-23 06:07 43.78837 -110.60715 9975 ft 162 kts 247°
2026-04-23 06:08 43.78277 -110.62071 9776 ft 165 kts 233°
2026-04-23 06:08 43.77383 -110.63086 9582 ft 165 kts 222°
2026-04-23 06:08 43.76491 -110.64056 9385 ft 161 kts 223°
2026-04-23 06:08 43.75623 -110.65015 9208 ft 160 kts 220°
2026-04-23 06:09 43.74740 -110.65984 9026 ft 167 kts 218°
2026-04-23 06:09 43.73811 -110.66995 8832 ft 172 kts 216°
2026-04-23 06:09 43.72783 -110.67819 8629 ft 170 kts 200°
2026-04-23 06:09 43.71690 -110.68393 8457 ft 166 kts 198°
2026-04-23 06:10 43.70613 -110.68935 8273 ft 164 kts 197°
2026-04-23 06:10 43.69609 -110.69429 8074 ft 145 kts 199°
2026-04-23 06:10 43.68637 -110.69905 7975 ft 152 kts 200°
2026-04-23 06:10 43.67666 -110.70380 7809 ft 140 kts 201°
2026-04-23 06:11 43.66767 -110.70791 7523 ft 134 kts 206°
2026-04-23 06:11 43.65921 -110.71220 7296 ft 126 kts 205°
2026-04-23 06:11 43.65109 -110.71658 7177 ft 130 kts 200°
2026-04-23 06:11 43.64250 -110.72056 6980 ft 128 kts 200°
2026-04-23 06:12 43.63401 -110.72470 6813 ft 130 kts 197°
2026-04-23 06:12 43.62541 -110.72905 6673 ft 129 kts 194°
2026-04-23 06:12 43.60951 -110.73680 6421 ft 107 kts 193°
2026-04-23 06:13 43.60398 -110.73930 6413 ft 58 kts 198°
2026-04-23 06:13 43.60087 -110.74082 6416 ft 42 kts 198°
2026-04-23 06:13 43.59921 -110.74110 6418 ft 16 kts 132°
2026-04-23 06:13 43.59901 -110.74062 6419 ft 0 kts 101°
2026-04-23 06:14 43.59901 -110.74057 6419 ft 3 kts 98°
2026-04-23 06:14 43.59892 -110.74015 6420 ft 7 kts 122°
2026-04-23 06:14 43.59884 -110.73937 6419 ft 7 kts 45°
2026-04-23 06:14 43.59930 -110.73913 6420 ft 9 kts 20°
2026-04-23 06:15 43.59944 -110.73888 6419 ft 1 kts 112°
2026-04-23 06:15 43.59943 -110.73886 6419 ft 0 kts 119°